Lid_Strength_Index
0 1 -0 1 6 6 9 8 7 7 7 5 5 6 6 5 6 7 1 -0 -0 -0 -1 -1 -1 -1 -2 -2 -1 -1 -1 -1 -1 -1 -1 -1 -1 -2 -2 -2 -2 -2 -2 -2 -2 -2 -2 -2 -1
1 2 1 3 7 10 9 7 8 6 6 5 5 5 6 6 4 2 2 -0 -0 -1 -1 -1 -0 -1 -2 -2 -1 -1 -2 -1 -1 -1 -1 -1 -1 -1 -2 -2 -2 -2 -2 -2 -2 -1 -1 -1 -0
2 3 3 5 7 10 9 7 7 6 6 6 6 5 5 5 3 2 0 -0 -1 -1 -1 -1 -0 -1 -2 -2 -2 -2 -2 -2 -1 -1 -1 -1 -1 -1 -1 -2 -2 -2 -2 -2 -2 -2 -0 1 1
2 2 4 7 9 8 8 7 7 6 6 6 6 6 5 3 2 1 -0 -1 -0 -1 -1 -0 -0 -1 -1 -2 -2 -2 -2 -1 -1 -1 -1 -1 -1 -1 -2 -2 -2 -2 -2 -2 -2 -1 -0 1 1
3 3 6 8 9 8 7 7 7 7 6 6 6 7 6 3 1 0 -0 -0 0 -0 -1 -1 -0 -0 -1 -1 -2 -2 -2 -2 -2 -2 -1 -1 -1 -1 -2 -2 -2 -2 -2 -2 -2 -2 -0 1 1
4 5 8 10 9 8 7 7 7 7 7 6 6 6 6 4 2 0 -0 -0 -1 -0 -1 -1 0 1 0 -1 -1 -2 -2 -2 -2 -2 -1 -2 -2 -1 -1 -1 -1 -2 -2 -2 -2 -2 -1 1 1
6 6 8 9 9 9 7 7 7 7 7 7 5 7 5 4 3 0 -0 -0 -1 -1 -1 -1 -1 -0 2 0 -0 -1 -1 -1 -2 -1 -2 -1 -2 -2 -1 -2 -2 -2 -2 -2 -2 -1 -1 1 1
5 6 9 9 9 9 7 7 7 7 7 6 5 7 7 5 3 1 0 1 1 2 -0 -1 -1 -1 -1 -1 1 1 -0 -0 -1 -1 -1 0 -0 -0 -0 -1 -1 -1 -2 -2 -1 -1 -0 1 2
6 8 10 9 9 8 7 7 7 6 7 6 7 7 7 6 4 4 4 4 4 4 4 4 1 0 0 -1 -0 2 2 1 0 0 2 1 -1 -1 -1 1 -1 -2 -2 -1 -1 -0 0 3 6
6 8 10 8 8 8 7 7 7 7 7 7 7 7 7 6 6 6 6 6 6 6 5 5 4 3 0 -0 -1 -1 -1 -1 -1 -1 -1 -2 -1 -1 0 1 0 -0 -1 -2 -1 0 2 2 4
7 9 9 8 7 7 7 7 7 8 8 7 7 8 8 8 8 7 7 7 7 6 5 5 5 4 3 0 -1 -1 -1 -1 -2 -1 -1 -1 -1 -1 0 0 0 -1 1 -1 -0 0 -1 1 3
8 8 8 7 7 7 8 7 8 8 8 8 8 8 9 9 9 9 8 8 7 6 6 5 4 3 4 -0 -1 -1 -1 -1 -1 -2 -1 -1 -1 1 0 0 0 -0 0 0 1 0 -0 1 2
8 8 7 7 7 8 8 8 8 9 9 9 9 9 9 9 9 9 9 8 8 7 6 5 3 2 2 1 -1 -1 -1 -1 -1 -0 -0 -1 -1 0 1 1 0 0 0 -0 0 1 -0 0 1
8 8 8 8 8 8 9 9 8 10 9 10 10 10 10 10 10 9 9 9 8 7 6 5 4 2 2 1 -0 -0 -0 1 1 1 1 1 0 0 1 0 1 -1 -0 1 2 2 2 -0 1
8 9 8 8 9 9 8 10 10 10 10 10 11 11 11 11 10 11 10 10 9 8 8 8 6 1 1 -0 2 4 4 4 4 3 3 2 1 1 2 2 2 2 2 3 4 5 4 4 3
9 9 10 9 9 9 9 10 11 10 10 11 11 11 12 12 12 11 11 10 9 8 9 8 5 4 4 4 5 5 5 6 5 4 4 4 3 2 2 4 4 3 4 4 5 4 4 5 6
10 11 12 11 9 10 10 11 11 11 11 12 12 12 12 12 11 11 11 10 9 9 9 8 6 5 5 6 7 8 8 8 8 7 7 6 4 4 3 4 4 4 4 6 5 7 6 5 6
11 12 12 11 10 10 11 10 12 12 12 12 12 12 12 12 13 12 11 10 9 9 9 8 8 6 6 7 7 8 8 8 8 7 7 6 6 4 5 6 5 4 6 7 5 7 6 8 8
10 11 11 11 11 11 10 11 10 12 12 12 13 13 13 13 12 12 11 11 9 9 9 9 8 7 5 5 6 7 8 9 10 10 9 8 8 7 6 6 6 5 6 7 7 7 8 8 8
12 12 12 12 11 11 11 12 10 13 13 12 13 13 13 13 12 12 12 11 11 10 9 9 8 8 7 7 7 8 10 11 11 11 11 11 10 10 9 8 8 8 7 7 7 7 6 6 7
13 13 12 12 12 12 13 13 13 14 14 14 13 12 12 12 13 12 12 12 12 12 11 11 10 9 8 8 9 9 10 10 11 12 12 12 11 11 11 11 10 10 10 10 9 8 8 8 7
14 12 13 14 13 14 13 15 14 14 15 14 14 13 13 13 13 13 13 13 13 13 12 11 11 11 10 9 9 9 11 12 12 12 12 12 11 12 11 11 11 11 11 11 11 10 10 8 9
12 12 13 13 14 15 15 15 13 15 15 15 13 13 12 12 13 13 14 14 14 13 12 12 12 12 11 11 11 11 12 12 12 12 12 12 12 12 12 11 11 11 11 11 11 11 11 11 11
13 13 14 14 15 18 14 15 14 15 14 13 13 13 13 13 13 14 14 14 14 13 13 13 13 13 12 12 12 12 12 12 12 12 12 12 12 12 12 11 11 11 11 11 11 11 11 11 11
13 13 16 18 18 18 17 17 13 13 13 13 13 13 13 13 14 14 15 14 15 14 14 13 13 14 13 12 12 12 12 12 12 12 12 12 12 12 12 12 12 12 12 12 11 11 11 11 11
14 13 15 21 20 18 18 18 15 13 13 13 11 12 12 13 14 14 14 14 14 14 14 14 14 14 13 12 13 12 12 12 12 12 12 12 13 13 13 13 12 12 12 12 11 11 11 11 11
15 16 13 18 20 18 16 15 13 14 14 14 13 13 13 13 14 14 14 14 14 14 14 14 14 14 13 13 12 12 12 12 13 13 12 13 12 13 13 12 13 12 12 12 12 11 12 11 11
14 12 16 16 20 20 18 17 14 15 14 15 15 14 13 13 14 14 14 14 14 14 14 13 13 13 13 13 12 12 12 12 12 12 13 13 13 13 13 13 12 12 12 12 12 12 12 12 11
15 15 15 14 15 18 18 17 13 13 12 14 13 13 13 13 13 13 13 14 14 14 14 14 13 13 13 12 12 12 12 12 12 12 12 13 13 13 13 13 13 13 13 13 13 13 12 12 12
12 13 13 15 18 17 18 16 13 13 12 12 12 12 12 12 12 12 12 13 14 14 14 13 13 13 12 12 12 12 12 12 12 12 13 13 13 13 14 14 14 13 13 13 13 13 13 13 13